Location: Cahas Mountain Overlook
(37.0833°N, 80.1000°W)
Time: 11:25:42
(UTC-05:00)

Courier 1B Rocket - Pass Details

Date: 10 December 2023
Orbit: 920 x 1202 km, 28.2° (Epoch: 01 March)

Event Time Altitude Azimuth Distance (km) Brightness Sun altitude
Rises 09:26:42 0° 226° (SW) 3,983 8.2 18.3°
Reaches altitude 10° 09:30:05 10° 214° (SW) 2,981 7.8 18.8°
Maximum altitude 09:35:52 26° 162° (SSE) 1,987 8.4 19.5°
Drops below altitude 10° 09:41:20 10° 109° (ESE) 2,817 8.5 20.2°
Sets 09:44:25 0° 97° (E) 3,722 8.7 20.5°
